Campo, CA

3:46 AM PDT on October 16, 2019 (GMT -0700)
Campo

Weather History for KCZZ - August, 2019

Change the Weather History Date:

Saturday, August 10, 2019

  Actual Average Record
Temperature  
Mean Temperature 68 °F -  
Max Temperature 89 °F - 105 °F (1995)
Min Temperature 46 °F - 39 °F (1999)
Cooling Degree Days 3    
Month to date cooling degree days 117  
Year to date cooling degree days 445  
Since 1 June cooling degree days 443  
Growing Degree Days 18 (Base 50)    
Moisture  
Dew Point 38 °F    
Average Humidity 43    
Maximum Humidity 72    
Minimum Humidity 13    
Precipitation  
Precipitation 0.00 in - 0.38 in (1984)
Month to date precipitation 0.00  
Year to date precipitation 12.82  
Sea Level Pressure  
Sea Level Pressure 29.86 in    
Wind  
Wind Speed 8 mph (WNW)    
Max Wind Speed 20 mph    
Max Gust Speed 26 mph    
T = Trace of Precipitation, MM = Missing Value Source: NWS Daily Summary

Daily Weather History Graph

Daily Weather History Graph

Search for Another Location

Airport or City:

Astronomy

Aug. 10, 2019 Rise Set
Actual Time 6:06 AM PDT 7:35 PM PDT
Civil Twilight 5:39 AM PDT 8:02 PM PDT
Nautical Twilight 5:08 AM PDT 8:33 PM PDT
Astronomical Twilight 4:35 AM PDT 9:06 PM PDT
Moon 4:16 PM PDT (8/10) 1:50 AM PDT (8/10)
Length of Visible Light 14h 22m
Length of Day
13h 29m
Waxing Gibbous, 80% of the Moon is Illuminated
Aug 10
Waxing Gibbous
Aug 15
Full
Aug 23
Last Quarter
Aug 30
New
Sep 5
First Quarter

Hourly Weather History & Observations

Time (PDT) Temp. Dew Point Humidity Pressure Visibility Wind Dir Wind Speed Gust Speed Precip Events Conditions
12:52 AM 53.1 °F 36.0 °F 52% 29.86 in - ENE 6.9 mph - N/A   Unknown
1:52 AM 51.1 °F 35.1 °F 54% 29.86 in - ENE 6.9 mph - N/A   Unknown
2:52 AM 50.0 °F 33.1 °F 52% 29.85 in - NE 5.8 mph - N/A   Unknown
3:52 AM 48.9 °F 32.0 °F 52% 29.85 in - ENE 6.9 mph - N/A   Unknown
4:52 AM 48.0 °F 32.0 °F 54% 29.86 in - NE 6.9 mph - N/A   Unknown
5:52 AM 46.9 °F 30.0 °F 52% 29.86 in - NE 6.9 mph - N/A   Unknown
6:52 AM 50.0 °F 30.9 °F 48% 29.88 in - NE 8.1 mph - N/A   Unknown
7:52 AM 64.0 °F 35.1 °F 34% 29.87 in - Calm Calm - N/A   Unknown
8:52 AM 75.0 °F 34.0 °F 22% 29.86 in - Calm Calm - N/A   Unknown
9:52 AM 81.0 °F 24.1 °F 12% 29.86 in - SSW 6.9 mph - N/A   Unknown
10:52 AM 84.0 °F 28.0 °F 13% 29.87 in - SW 13.8 mph - N/A   Unknown
11:52 AM 84.9 °F 30.9 °F 14% 29.86 in - SSW 16.1 mph - N/A   Unknown
12:52 PM 87.1 °F 34.0 °F 15% 29.86 in - West 12.7 mph 18.4 mph N/A   Unknown
1:52 PM 88.0 °F 39.9 °F 18% 29.85 in - WSW 9.2 mph 19.6 mph N/A   Unknown
2:52 PM 89.1 °F 41.0 °F 19% 29.83 in - WSW 15.0 mph 19.6 mph N/A   Unknown
3:52 PM 88.0 °F 39.0 °F 18% 29.83 in - WSW 15.0 mph 20.7 mph N/A   Unknown
4:52 PM 84.9 °F 43.0 °F 23% 29.83 in - West 13.8 mph 23.0 mph N/A   Unknown
5:52 PM 82.9 °F 39.0 °F 21% 29.86 in - West 9.2 mph - N/A   Unknown
6:52 PM 78.1 °F 46.9 °F 33% 29.87 in - West 9.2 mph - N/A   Unknown
7:52 PM 73.0 °F 50.0 °F 44% 29.86 in - West 9.2 mph - N/A   Unknown
8:52 PM 66.9 °F 51.1 °F 57% 29.88 in - Variable 3.5 mph - N/A   Unknown
9:52 PM 62.1 °F 50.0 °F 65% 29.89 in - Calm Calm - N/A   Unknown
10:52 PM 59.0 °F 46.9 °F 64% 29.89 in - North 3.5 mph - N/A   Unknown
11:52 PM 55.9 °F 46.0 °F 69% 29.90 in - NNE 3.5 mph - N/A   Unknown